Home   Weather   Camagüey   Past weeks

Flag for Cuba Past Weather in Camagüey, Cuba — Yesterday and Last 2 Weeks

Now
73 °F

Passing clouds.


Feels Like: 72 °F
Forecast: 68 / 88 °F
Wind: 10 mph from East

Location: Camaguey Aeropuerto

Current Time: Feb 27, 2017 at 8:57:31 am

Latest Report: Feb 27, 2017 at 7:51 am


Visibility: 6 mi

Pressure: 30.15 "Hg

Humidity: 89%

Dew Point: 70 °F

Location of CamagüeyLocation

Past Weather in Camagüey — Graph

°F

Camagüey Temperature Yesterday

Maximum temperature yesterday: 86 °F (at 11:50 am)
Minimum temperature yesterday: 68 °F (at 3:50 am)
Average temperature yesterday: 76 °F

High & Low Weather Summary for the Past Weeks

 TemperatureHumidityPressure
High90 °F (Feb 16, 1:50 pm)94% (Feb 16, 2:50 am)30.18 "Hg (Feb 16, 2:50 am)
Low61 °F (Feb 14, 3:50 am)25% (Feb 14, 3:50 pm)29.71 "Hg (Feb 23, 3:50 am)
Average74 °F69%30.00 "Hg
* Reported Feb 12 7:50 am — Feb 27 7:51 am, Camagüey, Weather by CustomWeather, © 2017

Note: Actual official high and low records may vary slightly from our data, if they occured in-between our weather recording intervals... More about our weather records

Advertising

Camagüey Weather History for the Previous 24 Hours

Scroll right to see more
 ConditionsComfort  
Time TempWeatherWind HumidityBarometerVisibility
7:51 am
Mon, Feb 27
73 °FPassing clouds.10 mph89%30.15 "Hg6 mi
6:50 am70 °FPassing clouds.7 mph94%30.12 "Hg6 mi
5:50 am70 °FPassing clouds.7 mph94%30.09 "Hg5 mi
4:50 am70 °FPassing clouds.9 mph94%30.09 "Hg6 mi
3:50 am70 °FPassing clouds.9 mph94%30.09 "Hg6 mi
2:51 am72 °FPassing clouds.9 mph88%30.07 "Hg6 mi
1:50 am72 °FPassing clouds.12 mph94%30.09 "Hg6 mi
12:50 am72 °FPassing clouds.9 mph94%30.09 "Hg6 mi
11:50 pm
Sun, Feb 26
73 °FLight rain. Passing clouds.12 mph89%30.12 "Hg4 mi
10:50 pm73 °FPassing clouds.6 mph89%30.12 "Hg6 mi
9:50 pm73 °FPassing clouds.12 mph89%30.12 "Hg6 mi
8:50 pm75 °FPassing clouds.15 mph78%30.09 "Hg6 mi
7:50 pm75 °FPassing clouds.14 mph78%30.09 "Hg6 mi
6:50 pm77 °FPassing clouds.15 mph74%30.07 "Hg6 mi
5:50 pm79 °FPassing clouds.18 mph65%30.04 "Hg6 mi
4:50 pm82 °FScattered clouds.20 mph55%30.04 "HgN/A
3:50 pm84 °FScattered clouds.18 mph48%30.01 "HgN/A
2:51 pm86 °FScattered clouds.17 mph46%30.01 "HgN/A
1:52 pm86 °FPartly sunny.14 mph46%30.01 "HgN/A
12:50 pm86 °FPartly sunny.13 mph46%30.04 "HgN/A
11:50 am86 °FPartly sunny.12 mph46%30.07 "HgN/A
10:50 am82 °FScattered clouds.9 mph55%30.09 "HgN/A
9:50 am81 °FPassing clouds.10 mph62%30.09 "HgN/A
8:50 am77 °FSunny.9 mph69%30.09 "Hg10 mi
Weather by CustomWeather, © 2017

See weather overviewHow to use our weather pages